Weather History for Canadian, TX

Change the Weather History Date:

Sunday, November 24, 2013

  Actual Average (KPPA) Record (KPPA)
Temperature  
Mean Temperature 28 °F -  
Max Temperature 31 °F 54 °F 76 °F (1966)
Min Temperature 26 °F 28 °F 14 °F (2003)
Degree Days  
Heating Degree Days 36    
Moisture  
Dew Point 24 °F    
Average Humidity 84    
Maximum Humidity 96    
Minimum Humidity 59    
Precipitation  
Precipitation 0.13 in - - ()
Sea Level Pressure  
Sea Level Pressure 30.43 in    
Wind  
Wind Speed 4 mph (SSE)    
Max Wind Speed 14 mph    
Max Gust Speed 12 mph    
Visibility 8 miles    
Events Snow    
Averages and records for this station are not official NWS values.
T = Trace of Precipitation, MM = Missing Value Source: NWS Daily Summary

Daily Weather History Graph

Daily Weather History Graph

Search for Another Location

Airport:

Trip Planner

Search our weather history database for the weather conditions in past years. The results will help you decide how hot, cold, wet, or windy it might be!

Date:

Astronomy

Nov. 24, 2013 Rise Set
Actual Time 7:27 AM CST 5:29 PM CST
Civil Twilight 6:59 AM CST 5:57 PM CST
Nautical Twilight 6:27 AM CST 6:28 PM CST
Astronomical Twilight 5:57 AM CST 6:59 PM CST
Moon 11:50 PM CST (11/24) 12:21 PM CST (11/24)
Length of Visible Light 10h 57m
Length of Day
10h 02m
Waning Gibbous, 60% of the Moon is Illuminated
Nov 24
Waning Gibbous
Nov 25
Last Quarter
Dec 2
New
Dec 9
First Quarter
Dec 17
Full

Hourly Weather History & Observations

Time (CST) Temp. Windchill Dew Point Humidity Pressure Visibility Wind Dir Wind Speed Gust Speed Precip Events Conditions
12:15 AM 31.5 °F 25.8 °F 21.2 °F 66% 30.63 in 10.0 mi NNE 5.8 mph - N/A   Overcast
12:35 AM 31.3 °F 25.6 °F 20.1 °F 63% 30.63 in 10.0 mi NE 5.8 mph - N/A   Overcast
12:55 AM 31.5 °F - 19.6 °F 62% 30.63 in 10.0 mi Calm Calm - N/A   Overcast
1:15 AM 31.1 °F - 19.0 °F 61% 30.63 in 10.0 mi Calm Calm - N/A   Overcast
1:35 AM 31.1 °F 27.7 °F 19.4 °F 62% 30.63 in 10.0 mi NE 3.5 mph - N/A   Overcast
1:55 AM 31.1 °F - 18.1 °F 59% 30.63 in 10.0 mi Calm Calm - N/A   Overcast
2:15 AM 31.1 °F - 19.4 °F 62% 30.62 in 10.0 mi Calm Calm - N/A   Overcast
2:35 AM 30.9 °F 23.5 °F 20.3 °F 65% 30.61 in 10.0 mi NE 8.1 mph - N/A   Overcast
2:55 AM 30.7 °F 26.0 °F 19.4 °F 63% 30.61 in 10.0 mi NE 4.6 mph - N/A   Overcast
3:15 AM 30.7 °F - 19.6 °F 63% 30.61 in 10.0 mi Calm Calm - N/A   Overcast
3:35 AM 30.7 °F - 19.2 °F 62% 30.62 in 10.0 mi Calm Calm - N/A   Overcast
3:55 AM 30.7 °F - 19.2 °F 62% 30.60 in 10.0 mi Calm Calm - N/A   Overcast
4:15 AM 30.7 °F - 19.8 °F 64% 30.60 in 10.0 mi Calm Calm - N/A   Overcast
4:35 AM 30.7 °F - 19.6 °F 63% 30.60 in 10.0 mi Calm Calm - N/A   Overcast
4:55 AM 30.0 °F - 20.8 °F 69% 30.60 in 4.0 mi Calm Calm - N/A Snow Light Snow
5:15 AM 28.4 °F - 23.2 °F 81% 30.59 in 1.5 mi Calm Calm - N/A Snow Light Snow
5:35 AM 27.5 °F - 24.8 °F 90% 30.58 in 1.2 mi Calm Calm - N/A Snow Light Snow
5:55 AM 27.5 °F - 25.5 °F 92% 30.58 in 1.2 mi Calm Calm - 0.01 in Snow Light Snow
6:15 AM 27.0 °F 23.0 °F 25.3 °F 94% 30.57 in 1.2 mi SSE 3.5 mph - 0.01 in Snow Snow
6:35 AM 26.6 °F - 25.2 °F 94% 30.57 in 1.0 mi Calm Calm - 0.05 in Snow Snow
6:55 AM 26.6 °F - 25.3 °F 95% 30.56 in 1.2 mi Calm Calm - 0.08 in Snow Snow
7:15 AM 26.6 °F 21.2 °F 25.5 °F 96% 30.55 in 2.5 mi ESE 4.6 mph - 0.01 in Snow Light Snow
7:35 AM 26.6 °F 21.2 °F 25.2 °F 94% 30.55 in 7.0 mi ESE 4.6 mph - 0.01 in Snow Light Snow
7:55 AM 26.8 °F 21.4 °F 25.3 °F 94% 30.55 in 5.0 mi ESE 4.6 mph - 0.01 in   Overcast
8:15 AM 27.1 °F 23.2 °F 25.3 °F 93% 30.54 in 10.0 mi East 3.5 mph - N/A   Overcast
8:35 AM 27.5 °F 23.6 °F 25.7 °F 93% 30.54 in 10.0 mi ESE 3.5 mph - N/A   Overcast
8:55 AM 27.5 °F - 25.5 °F 92% 30.54 in 3.0 mi Calm Calm - N/A Snow Light Snow
9:15 AM 27.9 °F 22.6 °F 25.7 °F 92% 30.52 in 7.0 mi SE 4.6 mph - N/A Snow Light Snow
9:35 AM 28.0 °F - 25.3 °F 90% 30.52 in 10.0 mi Calm Calm - N/A   Overcast
9:55 AM 28.2 °F 24.4 °F 25.2 °F 88% 30.50 in 10.0 mi East 3.5 mph - N/A   Overcast
10:15 AM 28.2 °F - 25.2 °F 88% 30.50 in 7.0 mi Calm Calm - N/A   Overcast
10:35 AM 28.4 °F 24.6 °F 25.3 °F 88% 30.49 in 4.0 mi NE 3.5 mph - N/A Snow Light Snow
10:55 AM 28.4 °F - 25.3 °F 88% 30.49 in 3.0 mi Calm Calm - N/A   Overcast
11:15 AM 29.7 °F - 26.2 °F 87% 30.48 in 5.0 mi Calm Calm - N/A Snow Light Snow
11:35 AM 29.3 °F - 26.2 °F 88% 30.47 in 4.0 mi Calm Calm - N/A Snow Light Snow
11:55 AM 29.7 °F - 26.6 °F 88% 30.46 in 1.8 mi Calm Calm - N/A Snow Light Snow
12:15 PM 30.0 °F - 27.1 °F 89% 30.44 in 2.0 mi Calm Calm - N/A Snow Light Snow
12:35 PM 31.1 °F 25.4 °F 27.9 °F 88% 30.42 in 7.0 mi SSE 5.8 mph - N/A   Overcast
12:55 PM 31.1 °F 26.4 °F 28.0 °F 88% 30.41 in 4.0 mi South 4.6 mph - N/A Snow Light Snow
1:15 PM 31.6 °F 26.0 °F 28.4 °F 88% 30.40 in 5.0 mi South 5.8 mph - N/A Snow Light Snow
1:35 PM 31.1 °F 25.4 °F 28.6 °F 90% 30.39 in 0.8 mi South 5.8 mph - 0.01 in Snow Light Snow
1:55 PM 31.1 °F 25.4 °F 28.9 °F 92% 30.38 in 1.0 mi SSE 5.8 mph - 0.01 in Snow Light Snow
2:15 PM 31.1 °F 24.5 °F 29.8 °F 95% 30.37 in 0.5 mi SE 6.9 mph - 0.02 in Snow Snow
2:35 PM 31.1 °F 22.4 °F 28.9 °F 92% 30.35 in 7.0 mi South 10.4 mph - 0.02 in Snow Light Snow
2:55 PM 31.1 °F 21.9 °F 27.7 °F 87% 30.34 in 10.0 mi SSE 11.5 mph - 0.02 in   Overcast
3:15 PM 30.9 °F 21.2 °F 27.0 °F 85% 30.34 in 10.0 mi South 12.7 mph - N/A   Overcast
3:35 PM 30.7 °F 20.4 °F 26.8 °F 85% 30.33 in 10.0 mi South 13.8 mph - N/A   Overcast
3:55 PM 30.2 °F 20.8 °F 25.7 °F 83% 30.33 in 10.0 mi South 11.5 mph - N/A   Overcast
4:15 PM 30.2 °F 21.3 °F 26.1 °F 85% 30.33 in 10.0 mi South 10.4 mph - N/A   Overcast
4:35 PM 30.0 °F 21.1 °F 25.5 °F 83% 30.32 in 10.0 mi South 10.4 mph - N/A   Overcast
4:55 PM 29.7 °F 20.1 °F 25.5 °F 85% 30.31 in 10.0 mi South 11.5 mph - N/A   Overcast
5:15 PM 29.1 °F 20.6 °F 25.5 °F 86% 30.30 in 10.0 mi South 9.2 mph - N/A   Overcast
5:35 PM 28.4 °F 20.4 °F 25.0 °F 87% 30.28 in 10.0 mi SSE 8.1 mph - N/A   Overcast
5:55 PM 27.9 °F 19.8 °F 24.6 °F 88% 30.28 in 10.0 mi South 8.1 mph - N/A   Overcast
6:15 PM 27.5 °F 18.6 °F 24.4 °F 88% 30.28 in 10.0 mi South 9.2 mph - N/A   Overcast
6:35 PM 27.5 °F 19.3 °F 24.6 °F 89% 30.27 in 10.0 mi South 8.1 mph - N/A   Overcast
6:55 PM 27.3 °F 19.1 °F 24.8 °F 90% 30.27 in 10.0 mi South 8.1 mph - N/A   Overcast
7:15 PM 27.0 °F 17.3 °F 24.4 °F 90% 30.27 in 10.0 mi SSW 10.4 mph - N/A   Overcast
7:35 PM 27.0 °F 18.7 °F 24.3 °F 90% 30.27 in 10.0 mi SSW 8.1 mph - N/A   Overcast
7:55 PM 26.6 °F 16.8 °F 23.9 °F 90% 30.26 in 10.0 mi SSW 10.4 mph - N/A   Overcast
8:15 PM 26.6 °F 17.5 °F 23.9 °F 90% 30.26 in 10.0 mi South 9.2 mph - N/A   Overcast
8:35 PM 26.6 °F 15.7 °F 23.9 °F 90% 30.25 in 10.0 mi South 12.7 mph - N/A   Overcast
8:55 PM 26.4 °F 17.3 °F 23.9 °F 90% 30.24 in 10.0 mi South 9.2 mph - N/A   Overcast
9:15 PM 26.2 °F 17.8 °F 23.7 °F 90% 30.24 in 10.0 mi South 8.1 mph 11.5 mph N/A   Overcast
9:35 PM 26.2 °F 17.8 °F 23.9 °F 91% 30.23 in 10.0 mi South 8.1 mph - N/A   Overcast
9:55 PM 26.2 °F 17.1 °F 23.9 °F 91% 30.23 in 10.0 mi SSW 9.2 mph - N/A   Overcast
10:15 PM 26.1 °F 16.2 °F 23.9 °F 92% 30.22 in 10.0 mi SSW 10.4 mph - N/A   Overcast
10:35 PM 26.2 °F 15.8 °F 24.3 °F 92% 30.21 in 10.0 mi SSW 11.5 mph - N/A   Overcast
10:55 PM 26.6 °F 17.5 °F 24.6 °F 92% 30.20 in 10.0 mi SSW 9.2 mph - N/A   Overcast
11:15 PM 26.6 °F 18.2 °F 24.8 °F 93% 30.19 in 10.0 mi South 8.1 mph - N/A   Overcast
11:35 PM 26.6 °F 16.8 °F 24.8 °F 93% 30.19 in 10.0 mi SSW 10.4 mph - N/A   Overcast
11:55 PM 26.6 °F 17.5 °F 24.8 °F 93% 30.18 in 10.0 mi SSW 9.2 mph - N/A   Overcast